ATLAS AGENA B DEB, 631

Orbit data source: Space-Track

ATLAS AGENA B DEB, 631 is space debris in LEO originally from a launch on Fri, 19 Jul 1963 UTC launched from the Air Force Western Test Range (AFWTR). Debris objects in space refer to the collection of defunct objects orbiting the Earth. Examples of debris include non-operational satellites, rocket bodies, and fragments generated from explosions, collisions, or faulty payload assembly.

Loading next visibility...
Identifier
631, 1963-030E
Orbit
LEO
Country
Flag of USUS
Related business
Manufacturer
Unknown
Mission
Spacecraft
Bus & Motor
Unknown
Mass
~10 kg wet, ~10 kg dry
Launch date (UTC)
1963-07-19 (63 years ago)
Launch vehicle
Unknown
Launch site
Air Force Western Test Range (AFWTR)
Object type
Payload
Rocket body
Debris
Shape & HBR
Unknown
Radar Cross Section
Medium (>0.1 m² and <1 m²)

Expand to show TLE details & history
Last TLE update: 1 day ago

TLE from 1 day ago
0 ATLAS AGENA B DEB
1 00631U 63030E   26129.22074986  .00000003  00000-0  00000-0 0  9993
2 00631  88.4388 219.3986 0159955 126.3078 235.2659  8.55875872962307
Epoch: 2026-05-09T05:17Z
TLE epoch observation values (Epoch: 2026-05-09T05:17:52.787Z)
Latitude
-0.00004°
Longitude
-87.11265°
Altitude
3,813.284 km
Speed
6.225 km/s
True Right ascension
14h 37m 35s
True Declination
0° 00' 00"
Sunlit
Object was in full shadow at epoch
Visualization orbit readout
Latitude
Unknown
Longitude
Unknown
Altitude
Unknown
Speed
Unknown
Apparent Right ascension
Unknown
Apparent Declination
Unknown
Sunlit
N/A
Visualization observer readout
Local Sidereal Time
18:59:20
Azimuth
Unknown
Elevation
Unknown
Doppler factor
Unknown
Orbital elements
Apogee altitude
3,876.644 km
Perigee altitude
3,553.748 km
Semi-major axis
10,093.333 km
Eccentricity
0.016
Inclination
88.4388°
RAAN
219.3986°
Arg. of periapsis
126.3078°
True anomaly
233.77671°
Mean anomaly
235.2659°
Eccentric anomaly
234.5196°
Mean motion
2.14038 °/min
Orbital period
168.19 mins
BSTAR
0
Loading maneuver chart data...
Computing Atmospheric mass density...
Loading historical data...
Loading historical data...
Loading historical data...
Loading historical data...
Loading historical data...
Loading historical data...
Loading historical data...

Documentation

Showing up to 5 results
|